• In Belarus
  • List of Countries
  • For 7 days
  • Water Temperature
  • Weather Map
  • Weather Widgets
  • user-avatar
    Login

    Hourly Weather Bansko

    Today, 16 October, Wednesday

    Time Temperature Precipitation Wind Pressure Humidity
    00:00 +16°C° 0 mm 1 mps 721 mmHg 48%
    01:00 +16°C° 0 mm 1 mps 721 mmHg 48%
    02:00 +16°C° 0 mm 1 mps 721 mmHg 47%
    03:00 +15°C° 0 mm 1 mps 721 mmHg 46%
    04:00 +15°C° 0 mm 1 mps 721 mmHg 45%
    05:00 +14°C° 0 mm 0 mps 721 mmHg 44%
    06:00 +15°C° 0 mm 0 mps 721 mmHg 43%
    07:00 +16°C° 0 mm 0 mps 721 mmHg 42%
    08:00 +17°C° 0 mm 0 mps 721 mmHg 42%
    09:00 +19°C° 0 mm 0 mps 722 mmHg 37%
    10:00 +23°C° 0 mm 1 mps 722 mmHg 33%
    11:00 +25°C° 0 mm 1 mps 722 mmHg 29%
    12:00 +26°C° 0 mm 1 mps 722 mmHg 27%
    13:00 +27°C° 0 mm 1 mps 722 mmHg 25%
    14:00 +28°C° 0 mm 1 mps 721 mmHg 23%
    15:00 +27°C° 0 mm 1 mps 721 mmHg 28%
    16:00 +25°C° 0 mm 1 mps 721 mmHg 32%
    17:00 +22°C° 0 mm 0 mps 720 mmHg 36%
    18:00 +22°C° 0 mm 1 mps 721 mmHg 39%
    19:00 +21°C° 0 mm 1 mps 721 mmHg 42%
    20:00 +19°C° 0 mm 1 mps 721 mmHg 45%
    21:00 +19°C° 0 mm 1 mps 721 mmHg 46%
    22:00 +18°C° 0 mm 1 mps 721 mmHg 47%
    23:00 +16°C° 0 mm 0 mps 721 mmHg 48%

    Tomorrow, 17 October, Thursday

    Time Temperature Precipitation Wind Pressure Humidity
    00:00 +16°C° 0 mm 1 mps 721 mmHg 48%
    01:00 +16°C° 0 mm 1 mps 722 mmHg 48%
    02:00 +16°C° 0 mm 1 mps 722 mmHg 49%
    03:00 +15°C° 0 mm 1 mps 722 mmHg 50%
    04:00 +15°C° 0 mm 1 mps 721 mmHg 50%
    05:00 +14°C° 0 mm 0 mps 721 mmHg 51%
    06:00 +15°C° 0 mm 0 mps 722 mmHg 50%
    07:00 +16°C° 0 mm 0 mps 722 mmHg 50%
    08:00 +16°C° 0 mm 0 mps 722 mmHg 49%
    09:00 +19°C° 0 mm 0 mps 722 mmHg 44%
    10:00 +23°C° 0 mm 1 mps 723 mmHg 39%
    11:00 +25°C° 0 mm 1 mps 723 mmHg 34%
    12:00 +26°C° 0 mm 1 mps 723 mmHg 32%
    13:00 +26°C° 0 mm 1 mps 722 mmHg 31%
    14:00 +27°C° 0 mm 1 mps 722 mmHg 29%
    15:00 +26°C° 0 mm 1 mps 722 mmHg 33%
    16:00 +25°C° 0 mm 1 mps 722 mmHg 38%
    17:00 +21°C° 0 mm 0 mps 721 mmHg 42%
    18:00 +20°C° 0 mm 0 mps 722 mmHg 44%
    19:00 +21°C° 0 mm 1 mps 722 mmHg 46%
    20:00 +20°C° 0 mm 1 mps 722 mmHg 48%
    21:00 +19°C° 0 mm 1 mps 722 mmHg 49%
    22:00 +19°C° 0 mm 1 mps 722 mmHg 50%
    23:00 +18°C° 0 mm 1 mps 722 mmHg 51%

    Day after tomorrow, 18 October, Friday

    Time Temperature Precipitation Wind Pressure Humidity
    00:00 +16°C° 0 mm 0 mps 722 mmHg 53%
    01:00 +15°C° 0 mm 0 mps 722 mmHg 54%
    02:00 +15°C° 0 mm 0 mps 722 mmHg 55%
    03:00 +15°C° 0 mm 0 mps 722 mmHg 56%
    04:00 +14°C° 0 mm 0 mps 722 mmHg 56%
    05:00 +14°C° 0 mm 0 mps 722 mmHg 57%
    06:00 +15°C° 0 mm 0 mps 722 mmHg 56%
    07:00 +16°C° 0 mm 0 mps 722 mmHg 55%
    08:00 +17°C° 0 mm 0 mps 723 mmHg 53%
    09:00 +19°C° 0 mm 0 mps 723 mmHg 48%
    10:00 +23°C° 0 mm 1 mps 723 mmHg 43%
    11:00 +25°C° 0 mm 1 mps 723 mmHg 38%
    12:00 +26°C° 0 mm 1 mps 723 mmHg 36%
    13:00 +26°C° 0 mm 1 mps 722 mmHg 35%
    14:00 +27°C° 0 mm 1 mps 722 mmHg 33%
    15:00 +26°C° 0 mm 1 mps 722 mmHg 37%
    16:00 +25°C° 0 mm 1 mps 721 mmHg 41%
    17:00 +24°C° 0 mm 1 mps 721 mmHg 45%
    18:00 +22°C° 0 mm 1 mps 721 mmHg 49%
    19:00 +21°C° 0 mm 1 mps 721 mmHg 53%
    20:00 +19°C° 0 mm 1 mps 721 mmHg 57%
    21:00 +19°C° 0 mm 1 mps 721 mmHg 59%
    22:00 +18°C° 0 mm 1 mps 722 mmHg 61%
    23:00 +18°C° 0 mm 1 mps 722 mmHg 62%

    19 October, Saturday

    Time Temperature Precipitation Wind Pressure Humidity
    00:00 +18°C° 0 mm 1 mps 722 mmHg 63%
    01:00 +15°C° 0 mm 0 mps 722 mmHg 64%
    02:00 +15°C° 0 mm 0 mps 722 mmHg 65%
    03:00 +15°C° 0 mm 0 mps 722 mmHg 66%
    04:00 +14°C° 0 mm 0 mps 722 mmHg 66%
    05:00 +14°C° 0 mm 0 mps 722 mmHg 67%
    06:00 +15°C° 0 mm 0 mps 722 mmHg 65%
    07:00 +16°C° 0 mm 0 mps 722 mmHg 62%
    08:00 +17°C° 0 mm 0 mps 722 mmHg 60%
    09:00 +19°C° 0 mm 0 mps 723 mmHg 54%
    10:00 +23°C° 0 mm 1 mps 723 mmHg 48%
    11:00 +25°C° 0 mm 1 mps 723 mmHg 42%
    12:00 +26°C° 0 mm 1 mps 723 mmHg 40%
    13:00 +26°C° 0 mm 1 mps 722 mmHg 39%
    14:00 +27°C° 0 mm 1 mps 722 mmHg 37%
    15:00 +26°C° 0.1 mm 1 mps 722 mmHg 41%
    16:00 +25°C° 0.1 mm 1 mps 722 mmHg 46%
    17:00 +24°C° 0.1 mm 1 mps 722 mmHg 50%
    18:00 +22°C° 0 mm 1 mps 722 mmHg 54%
    19:00 +21°C° 0 mm 1 mps 722 mmHg 58%
    20:00 +19°C° 0 mm 1 mps 722 mmHg 63%
    21:00 +19°C° 0 mm 1 mps 722 mmHg 64%
    22:00 +18°C° 0 mm 1 mps 722 mmHg 65%
    23:00 +18°C° 0 mm 1 mps 723 mmHg 67%

    20 October, Sunday

    Time Temperature Precipitation Wind Pressure Humidity
    00:00 +18°C° 0 mm 1 mps 723 mmHg 68%
    01:00 +16°C° 0 mm 1 mps 723 mmHg 69%
    02:00 +16°C° 0 mm 1 mps 723 mmHg 70%
    03:00 +16°C° 0 mm 1 mps 723 mmHg 70%
    04:00 +16°C° 0 mm 1 mps 723 mmHg 71%
    05:00 +14°C° 0 mm 0 mps 723 mmHg 72%
    06:00 +15°C° 0 mm 0 mps 723 mmHg 69%
    07:00 +16°C° 0 mm 0 mps 723 mmHg 66%
    08:00 +17°C° 0 mm 0 mps 724 mmHg 64%
    09:00 +19°C° 0 mm 0 mps 724 mmHg 57%
    10:00 +21°C° 0 mm 0 mps 724 mmHg 50%
    11:00 +25°C° 0 mm 1 mps 725 mmHg 43%
    12:00 +26°C° 0 mm 1 mps 724 mmHg 40%
    13:00 +27°C° 0 mm 1 mps 724 mmHg 37%
    14:00 +27°C° 0 mm 1 mps 724 mmHg 34%
    15:00 +26°C° 0 mm 1 mps 724 mmHg 38%
    16:00 +25°C° 0 mm 1 mps 723 mmHg 42%
    17:00 +24°C° 0 mm 1 mps 723 mmHg 46%
    18:00 +23°C° 0 mm 1 mps 723 mmHg 50%
    19:00 +21°C° 0 mm 1 mps 724 mmHg 54%
    20:00 +19°C° 0 mm 1 mps 724 mmHg 58%
    21:00 +19°C° 0 mm 1 mps 724 mmHg 59%
    22:00 +19°C° 0 mm 1 mps 724 mmHg 61%
    23:00 +18°C° 0 mm 1 mps 724 mmHg 62%

    21 October, Monday

    Time Temperature Precipitation Wind Pressure Humidity
    00:00 +18°C° 0 mm 1 mps 724 mmHg 63%
    01:00 +16°C° 0 mm 1 mps 724 mmHg 64%
    02:00 +16°C° 0 mm 1 mps 724 mmHg 65%
    03:00 +16°C° 0 mm 1 mps 724 mmHg 66%
    04:00 +15°C° 0 mm 1 mps 724 mmHg 67%
    05:00 +15°C° 0 mm 1 mps 724 mmHg 68%
    06:00 +16°C° 0 mm 1 mps 724 mmHg 66%
    07:00 +18°C° 0 mm 1 mps 724 mmHg 63%
    08:00 +18°C° 0 mm 1 mps 725 mmHg 61%
    09:00 +20°C° 0 mm 1 mps 725 mmHg 54%
    10:00 +23°C° 0 mm 1 mps 725 mmHg 48%
    11:00 +25°C° 0 mm 1 mps 725 mmHg 41%
    12:00 +25°C° 0 mm 1 mps 725 mmHg 39%
    13:00 +26°C° 0 mm 1 mps 725 mmHg 37%
    14:00 +27°C° 0 mm 1 mps 725 mmHg 35%
    15:00 +26°C° 0 mm 1 mps 724 mmHg 39%
    16:00 +25°C° 0 mm 1 mps 724 mmHg 42%
    17:00 +24°C° 0 mm 1 mps 724 mmHg 46%
    18:00 +22°C° 0 mm 1 mps 724 mmHg 50%
    19:00 +20°C° 0 mm 1 mps 724 mmHg 54%
    20:00 +19°C° 0 mm 1 mps 724 mmHg 58%
    21:00 +18°C° 0 mm 1 mps 724 mmHg 60%
    22:00 +18°C° 0 mm 1 mps 724 mmHg 61%
    23:00 +16°C° 0 mm 1 mps 724 mmHg 63%
    Show more